DLH26C LEPA-EDDF

Flight info

Callsign DLH26C
Flight time 1h 50m
Altitude 32000
Route MEROS DCT LAPIT DCT CHELY DCT LUMAS DCT MAXIR DCT LUSOL DCT BODRU DCT OKTET DCT IRMAR/N0430F360 DCT KINES DCT VANAS/N0434F380 DCT MOBLO DCT UBIMA DCT SOSAL DCT KORED DCT BERSU N871 DITON/N0429F370 DCT LADOL/N0432F380 T163 EMPAX EMPAX5B
Aircraft A320/M-SDE2E3FGIJ1LORWXYZ/HB1

Departure

Time 2026-05-04 14:20
Airport Palma de Mallorca Airport (LEPA)

Arrival

Time 2026-05-04 16:10
Airport Frankfurt Main Airport (EDDF)
Time Latitude Longitude Altitude Speed Heading
2026-05-04 13:52 39.54696 2.73393 39 ft 0 kts 239°
2026-05-04 14:10 39.54718 2.73436 34 ft 3 kts 228°
2026-05-04 14:10 39.54734 2.73454 37 ft 3 kts 200°
2026-05-04 14:10 39.54750 2.73456 37 ft 1 kts 150°
2026-05-04 14:12 39.54726 2.73474 37 ft 7 kts 150°
2026-05-04 14:12 39.54627 2.73568 38 ft 9 kts 110°
2026-05-04 14:13 39.54648 2.73641 38 ft 9 kts 60°
2026-05-04 14:13 39.54675 2.73706 38 ft 8 kts 58°
2026-05-04 14:13 39.54711 2.73780 38 ft 11 kts 59°
2026-05-04 14:13 39.54747 2.73861 38 ft 10 kts 57°
2026-05-04 14:14 39.54792 2.73950 38 ft 12 kts 57°
2026-05-04 14:14 39.54920 2.73967 38 ft 9 kts 19°
2026-05-04 14:14 39.54975 2.74006 38 ft 10 kts 345°
2026-05-04 14:15 39.55121 2.73894 38 ft 14 kts 329°
2026-05-04 14:15 39.55333 2.73726 37 ft 21 kts 328°
2026-05-04 14:16 39.55587 2.73527 38 ft 18 kts 329°
2026-05-04 14:16 39.55659 2.73520 38 ft 11 kts 36°
2026-05-04 14:17 39.55779 2.73765 38 ft 17 kts 58°
2026-05-04 14:17 39.55841 2.73895 38 ft 16 kts 58°
2026-05-04 14:17 39.55962 2.74151 38 ft 17 kts 58°
2026-05-04 14:18 39.56038 2.74267 38 ft 18 kts 32°
2026-05-04 14:18 39.56218 2.74329 37 ft 15 kts 329°
2026-05-04 14:19 39.56224 2.74257 38 ft 0 kts 238°
2026-05-04 14:19 39.56129 2.74059 38 ft 61 kts 238°
2026-05-04 14:19 39.55794 2.73351 38 ft 121 kts 238°
2026-05-04 14:19 39.55270 2.72243 110 ft 159 kts 237°
2026-05-04 14:20 39.54693 2.71013 799 ft 160 kts 237°
2026-05-04 14:20 39.54114 2.69780 1497 ft 165 kts 237°
2026-05-04 14:20 39.53477 2.68431 1872 ft 186 kts 238°
2026-05-04 14:21 39.52297 2.65934 2784 ft 202 kts 238°
2026-05-04 14:21 39.51561 2.64383 3585 ft 202 kts 237°
2026-05-04 14:21 39.50820 2.62820 4375 ft 205 kts 237°
2026-05-04 14:21 39.50035 2.61265 5125 ft 211 kts 228°
2026-05-04 14:22 39.48795 2.60090 5470 ft 235 kts 208°
2026-05-04 14:22 39.47274 2.59100 6003 ft 251 kts 208°
2026-05-04 14:22 39.45692 2.58080 6847 ft 256 kts 208°
2026-05-04 14:22 39.44074 2.57060 7702 ft 260 kts 204°
2026-05-04 14:23 39.40524 2.57827 9274 ft 288 kts 146°
2026-05-04 14:23 39.39039 2.59615 10073 ft 294 kts 143°
2026-05-04 14:23 39.37460 2.61393 10436 ft 313 kts 142°
2026-05-04 14:24 39.35863 2.63436 10735 ft 334 kts 137°
2026-05-04 14:24 39.34221 2.65593 11348 ft 340 kts 140°
2026-05-04 14:24 39.32490 2.67700 12044 ft 343 kts 142°
2026-05-04 14:24 39.30719 2.69792 12687 ft 349 kts 142°
2026-05-04 14:25 39.28918 2.71926 13380 ft 354 kts 140°
2026-05-04 14:25 39.26790 2.77699 14565 ft 379 kts 95°
2026-05-04 14:25 39.26730 2.81128 15138 ft 385 kts 92°
2026-05-04 14:26 39.26724 2.84609 15689 ft 391 kts 91°
2026-05-04 14:26 39.26994 2.88185 15835 ft 411 kts 79°
2026-05-04 14:26 39.27845 2.91784 15954 ft 429 kts 67°
2026-05-04 14:26 39.29249 2.95258 16084 ft 444 kts 58°
2026-05-04 14:27 39.30827 2.98759 16210 ft 459 kts 59°
2026-05-04 14:27 39.32437 3.02376 16365 ft 470 kts 60°
2026-05-04 14:27 39.34066 3.06071 16712 ft 475 kts 59°
2026-05-04 14:27 39.35702 3.09783 17186 ft 476 kts 59°
2026-05-04 14:28 39.37346 3.13506 17703 ft 477 kts 59°
2026-05-04 14:28 39.38986 3.17218 18230 ft 478 kts 59°
2026-05-04 14:28 39.40639 3.20958 18694 ft 479 kts 59°
2026-05-04 14:28 39.42290 3.24698 19161 ft 479 kts 59°
2026-05-04 14:29 39.45643 3.32144 20094 ft 481 kts 58°
2026-05-04 14:29 39.49147 3.39686 20415 ft 498 kts 58°
2026-05-04 14:30 39.50948 3.43551 20542 ft 505 kts 58°
2026-05-04 14:30 39.52766 3.47466 20671 ft 511 kts 58°
2026-05-04 14:30 39.56408 3.55395 21314 ft 512 kts 59°
2026-05-04 14:31 39.58217 3.59375 21669 ft 513 kts 59°
2026-05-04 14:31 39.61839 3.67356 22397 ft 514 kts 59°
2026-05-04 14:32 39.65473 3.75352 23113 ft 516 kts 59°
2026-05-04 14:32 39.67282 3.79334 23252 ft 522 kts 59°
2026-05-04 14:32 39.69130 3.83406 23391 ft 526 kts 59°
2026-05-04 14:32 39.70993 3.87516 23519 ft 530 kts 59°
2026-05-04 14:33 39.72868 3.91658 23650 ft 534 kts 59°
2026-05-04 14:33 39.74756 3.95836 23774 ft 537 kts 59°
2026-05-04 14:33 39.76643 4.00017 23895 ft 538 kts 59°
2026-05-04 14:33 39.78538 4.04226 24049 ft 539 kts 59°
2026-05-04 14:34 39.80434 4.08440 24211 ft 539 kts 59°
2026-05-04 14:34 39.82348 4.12631 24409 ft 539 kts 56°
2026-05-04 14:34 39.84676 4.16434 24585 ft 537 kts 44°
2026-05-04 14:34 39.87505 4.19567 24747 ft 533 kts 32°
2026-05-04 14:35 39.90719 4.21919 24925 ft 527 kts 19°
2026-05-04 14:35 39.94164 4.23410 25107 ft 519 kts
2026-05-04 14:35 39.97697 4.24269 25340 ft 516 kts
2026-05-04 14:35 40.01228 4.25095 25575 ft 515 kts
2026-05-04 14:36 40.04751 4.25924 25798 ft 515 kts
2026-05-04 14:36 40.08279 4.26757 26006 ft 515 kts
2026-05-04 14:36 40.11805 4.27590 26215 ft 515 kts
2026-05-04 14:36 40.15328 4.28421 26423 ft 515 kts
2026-05-04 14:37 40.18862 4.29253 26653 ft 515 kts
2026-05-04 14:37 40.22320 4.30066 26845 ft 516 kts
2026-05-04 14:37 40.25854 4.30899 27054 ft 516 kts
2026-05-04 14:37 40.29387 4.31737 27267 ft 516 kts
2026-05-04 14:38 40.32723 4.32529 27472 ft 517 kts
2026-05-04 14:38 40.36262 4.33371 27693 ft 517 kts
2026-05-04 14:38 40.39801 4.34212 27943 ft 517 kts
2026-05-04 14:38 40.43345 4.35053 28153 ft 518 kts
2026-05-04 14:39 40.46895 4.35898 28371 ft 519 kts
2026-05-04 14:39 40.50448 4.36746 28606 ft 519 kts
2026-05-04 14:39 40.53952 4.37581 28838 ft 519 kts
2026-05-04 14:40 40.61111 4.39286 29312 ft 520 kts
2026-05-04 14:40 40.64626 4.40123 29566 ft 520 kts
2026-05-04 14:40 40.68237 4.40987 29805 ft 521 kts
2026-05-04 14:40 40.71801 4.41842 30047 ft 521 kts
2026-05-04 14:41 40.75320 4.42689 30249 ft 521 kts
2026-05-04 14:41 40.78934 4.43565 30481 ft 520 kts
2026-05-04 14:41 40.85996 4.45276 30941 ft 519 kts
2026-05-04 14:42 40.93128 4.46988 31193 ft 522 kts
2026-05-04 14:42 40.96702 4.47852 31321 ft 523 kts
2026-05-04 14:42 41.00291 4.48726 31492 ft 524 kts
2026-05-04 14:43 41.03867 4.49599 31699 ft 523 kts
2026-05-04 14:43 41.07443 4.50473 31906 ft 522 kts
2026-05-04 14:43 41.14569 4.52207 31945 ft 520 kts
2026-05-04 14:44 41.21693 4.53941 31948 ft 520 kts
2026-05-04 14:44 41.28804 4.55679 31948 ft 519 kts
2026-05-04 14:45 41.35891 4.57423 31920 ft 518 kts
2026-05-04 14:45 41.42992 4.59154 31933 ft 519 kts
2026-05-04 14:46 41.50094 4.60898 31967 ft 519 kts
2026-05-04 14:46 41.57184 4.62650 31964 ft 518 kts
2026-05-04 14:47 41.64261 4.64408 31959 ft 517 kts
2026-05-04 14:47 41.71323 4.66275 31964 ft 520 kts 11°
2026-05-04 14:48 41.74730 4.67952 31963 ft 525 kts 22°
2026-05-04 14:48 41.77935 4.70332 31964 ft 527 kts 28°
2026-05-04 14:48 41.84215 4.75395 31963 ft 527 kts 28°
2026-05-04 14:49 41.90454 4.80416 31965 ft 526 kts 28°
2026-05-04 14:49 41.96724 4.85471 31969 ft 525 kts 28°
2026-05-04 14:50 42.02970 4.90527 31968 ft 524 kts 28°
2026-05-04 14:50 42.09216 4.95592 31957 ft 524 kts 28°
2026-05-04 14:51 42.15458 5.00655 31964 ft 523 kts 28°
2026-05-04 14:51 42.21677 5.05729 31968 ft 522 kts 28°
2026-05-04 14:52 42.27884 5.10809 31967 ft 522 kts 28°
2026-05-04 14:52 42.34087 5.15882 31983 ft 521 kts 28°
2026-05-04 14:53 42.40282 5.20952 31982 ft 520 kts 28°
2026-05-04 14:53 42.46472 5.26032 31979 ft 520 kts 28°
2026-05-04 14:54 42.52656 5.31132 31992 ft 520 kts 28°
2026-05-04 14:54 42.58835 5.36239 31971 ft 519 kts 28°
2026-05-04 14:55 42.65001 5.41346 31978 ft 519 kts 28°
2026-05-04 14:55 42.71158 5.46462 31985 ft 519 kts 28°
2026-05-04 14:56 42.77319 5.51585 31994 ft 519 kts 28°
2026-05-04 14:56 42.83466 5.56712 31988 ft 518 kts 28°
2026-05-04 14:57 42.89564 5.61809 31999 ft 518 kts 28°
2026-05-04 14:57 42.95712 5.66951 32000 ft 518 kts 29°
2026-05-04 14:58 43.01851 5.72110 31981 ft 518 kts 29°
2026-05-04 14:58 43.07982 5.77282 32006 ft 517 kts 29°
2026-05-04 14:59 43.14113 5.82453 32020 ft 518 kts 29°
2026-05-04 15:00 43.23307 5.90231 32009 ft 518 kts 29°
2026-05-04 15:00 43.29428 5.95430 32030 ft 518 kts 29°
2026-05-04 15:01 43.38758 6.02710 32028 ft 513 kts 16°
2026-05-04 15:01 43.45627 6.04673 32027 ft 500 kts 358°
2026-05-04 15:02 43.52551 6.05350 32027 ft 501 kts 358°
2026-05-04 15:02 43.59514 6.06046 32019 ft 502 kts 359°
2026-05-04 15:03 43.66487 6.06761 32023 ft 502 kts 359°
2026-05-04 15:03 43.73460 6.07485 32029 ft 504 kts
2026-05-04 15:04 43.76932 6.08325 32026 ft 511 kts 11°
2026-05-04 15:04 43.80298 6.09967 32021 ft 517 kts 21°
2026-05-04 15:04 43.86764 6.14357 32047 ft 517 kts 22°
2026-05-04 15:05 43.93207 6.18776 32053 ft 516 kts 22°
2026-05-04 15:05 43.99653 6.23186 32055 ft 516 kts 22°
2026-05-04 15:06 44.06098 6.27602 32078 ft 516 kts 22°
2026-05-04 15:07 44.15726 6.34225 32071 ft 514 kts 23°
2026-05-04 15:07 44.22117 6.38635 32374 ft 513 kts 23°
2026-05-04 15:07 44.25315 6.40839 32669 ft 512 kts 23°
2026-05-04 15:08 44.28507 6.43043 32952 ft 512 kts 22°
2026-05-04 15:08 44.31683 6.45240 33249 ft 511 kts 22°
2026-05-04 15:08 44.34861 6.47443 33484 ft 510 kts 22°
2026-05-04 15:08 44.38027 6.49643 33781 ft 507 kts 22°
2026-05-04 15:09 44.40118 6.51097 33943 ft 507 kts 22°
2026-05-04 15:09 44.43275 6.53295 34174 ft 507 kts 22°
2026-05-04 15:09 44.46426 6.55492 34413 ft 505 kts 22°
2026-05-04 15:10 44.53729 6.60589 34941 ft 504 kts 22°
2026-05-04 15:10 44.56861 6.62782 35156 ft 503 kts 22°
2026-05-04 15:10 44.62102 6.66449 35511 ft 503 kts 22°
2026-05-04 15:11 44.65225 6.68635 35732 ft 502 kts 22°
2026-05-04 15:11 44.68356 6.70830 35973 ft 501 kts 22°
2026-05-04 15:11 44.71473 6.73021 36108 ft 502 kts 22°
2026-05-04 15:12 44.77794 6.77110 36122 ft 496 kts 13°
2026-05-04 15:12 44.84438 6.78693 36127 ft 479 kts 354°
2026-05-04 15:13 44.91016 6.78312 36135 ft 476 kts 351°
2026-05-04 15:13 44.97676 6.77876 36137 ft 477 kts 351°
2026-05-04 15:14 45.04267 6.77437 36156 ft 477 kts 352°
2026-05-04 15:14 45.10900 6.76995 36159 ft 477 kts 352°
2026-05-04 15:15 45.17524 6.76552 36134 ft 476 kts 352°
2026-05-04 15:15 45.24147 6.76109 36145 ft 476 kts 352°
2026-05-04 15:16 45.34067 6.75458 36130 ft 476 kts 352°
2026-05-04 15:17 45.43992 6.74785 36131 ft 476 kts 352°
2026-05-04 15:17 45.50604 6.74332 36333 ft 476 kts 352°
2026-05-04 15:17 45.53908 6.74106 36543 ft 475 kts 351°
2026-05-04 15:18 45.57212 6.73883 36710 ft 475 kts 352°
2026-05-04 15:18 45.60508 6.73662 36896 ft 474 kts 352°
2026-05-04 15:18 45.63797 6.73438 37039 ft 473 kts 352°
2026-05-04 15:19 45.70350 6.72987 37277 ft 470 kts 352°
2026-05-04 15:19 45.73617 6.72763 37414 ft 471 kts 352°
2026-05-04 15:19 45.80072 6.72312 37787 ft 472 kts 352°
2026-05-04 15:20 45.83348 6.72083 37931 ft 470 kts 352°
2026-05-04 15:20 45.86604 6.71864 38069 ft 468 kts 352°
2026-05-04 15:20 45.93149 6.71430 38074 ft 472 kts 352°
2026-05-04 15:21 45.99729 6.70989 38071 ft 474 kts 352°
2026-05-04 15:22 46.09606 6.70318 38063 ft 475 kts 354°
2026-05-04 15:22 46.19438 6.72943 38067 ft 486 kts 13°
2026-05-04 15:23 46.25931 6.75713 38061 ft 486 kts 13°
2026-05-04 15:23 46.32423 6.78469 38059 ft 487 kts 13°
2026-05-04 15:24 46.45423 6.83979 38062 ft 487 kts 13°
2026-05-04 15:25 46.51883 6.86949 38048 ft 490 kts 21°
2026-05-04 15:26 46.59977 6.95937 38070 ft 496 kts 50°
2026-05-04 15:26 46.66470 7.07654 38063 ft 496 kts 50°
2026-05-04 15:27 46.72969 7.19393 38058 ft 496 kts 50°
2026-05-04 15:28 46.79455 7.31178 38052 ft 496 kts 51°
2026-05-04 15:29 46.85898 7.42970 38045 ft 495 kts 51°
2026-05-04 15:30 47.00819 7.70467 38036 ft 492 kts 51°
2026-05-04 15:31 47.07178 7.82261 38016 ft 492 kts 51°
2026-05-04 15:32 47.17156 8.02566 38005 ft 490 kts 58°
2026-05-04 15:34 47.26190 8.23810 38001 ft 490 kts 58°
2026-05-04 15:34 47.32959 8.34864 37988 ft 486 kts 32°
2026-05-04 15:35 47.41966 8.41598 38003 ft 484 kts 24°
2026-05-04 15:36 47.51066 8.48056 37999 ft 484 kts 24°
2026-05-04 15:36 47.57136 8.52375 37993 ft 484 kts 24°
2026-05-04 15:37 47.63201 8.56703 37994 ft 484 kts 24°
2026-05-04 15:37 47.69263 8.61040 38001 ft 484 kts 24°
2026-05-04 15:38 47.75294 8.65365 37985 ft 484 kts 24°
2026-05-04 15:38 47.81364 8.69729 37981 ft 485 kts 24°
2026-05-04 15:39 47.87438 8.74098 37983 ft 485 kts 24°
2026-05-04 15:40 47.96552 8.80678 37974 ft 483 kts 25°
2026-05-04 15:40 47.99531 8.82844 37966 ft 472 kts 25°
2026-05-04 15:40 48.02471 8.84981 37603 ft 471 kts 25°
2026-05-04 15:40 48.05429 8.87132 36846 ft 472 kts 25°
2026-05-04 15:41 48.08366 8.89273 36304 ft 468 kts 25°
2026-05-04 15:41 48.11289 8.91408 35743 ft 466 kts 25°
2026-05-04 15:41 48.14199 8.93491 35196 ft 463 kts 21°
2026-05-04 15:41 48.17229 8.95045 34657 ft 457 kts 12°
2026-05-04 15:42 48.20336 8.95884 34150 ft 451 kts
2026-05-04 15:42 48.23444 8.96332 33619 ft 448 kts
2026-05-04 15:42 48.26535 8.96792 33124 ft 443 kts
2026-05-04 15:42 48.29587 8.97261 32633 ft 439 kts
2026-05-04 15:43 48.32616 8.97730 32145 ft 436 kts
2026-05-04 15:43 48.35626 8.98194 31662 ft 433 kts
2026-05-04 15:43 48.38613 8.98650 31192 ft 430 kts
2026-05-04 15:43 48.41581 8.99102 30724 ft 427 kts
2026-05-04 15:44 48.44533 8.99552 30271 ft 425 kts
2026-05-04 15:44 48.47468 8.99998 29763 ft 422 kts
2026-05-04 15:44 48.50398 9.00437 29317 ft 418 kts
2026-05-04 15:44 48.53259 9.00867 28880 ft 414 kts
2026-05-04 15:45 48.56114 9.01299 28458 ft 410 kts
2026-05-04 15:45 48.58942 9.01731 28035 ft 407 kts
2026-05-04 15:45 48.61751 9.02168 27608 ft 403 kts
2026-05-04 15:45 48.64524 9.02642 27183 ft 400 kts
2026-05-04 15:46 48.67275 9.03237 26757 ft 398 kts
2026-05-04 15:46 48.69989 9.03905 26313 ft 396 kts
2026-05-04 15:46 48.72701 9.04605 25892 ft 394 kts
2026-05-04 15:46 48.75408 9.05303 25424 ft 393 kts
2026-05-04 15:47 48.78096 9.05981 24968 ft 392 kts
2026-05-04 15:47 48.80792 9.06645 24495 ft 391 kts
2026-05-04 15:47 48.83481 9.07293 24024 ft 395 kts
2026-05-04 15:47 48.86246 9.07948 23528 ft 415 kts
2026-05-04 15:48 48.89139 9.08612 22963 ft 415 kts
2026-05-04 15:48 48.92004 9.09135 22471 ft 419 kts
2026-05-04 15:48 48.97949 9.09921 21442 ft 429 kts
2026-05-04 15:49 49.00912 9.10273 20944 ft 426 kts
2026-05-04 15:49 49.03851 9.10639 20414 ft 423 kts
2026-05-04 15:49 49.06738 9.11024 19905 ft 421 kts
2026-05-04 15:49 49.09650 9.11433 19367 ft 419 kts
2026-05-04 15:50 49.12575 9.11856 18847 ft 416 kts
2026-05-04 15:50 49.15446 9.12276 18334 ft 413 kts
2026-05-04 15:50 49.18261 9.12688 17782 ft 411 kts
2026-05-04 15:50 49.21094 9.13096 17274 ft 406 kts
2026-05-04 15:51 49.23898 9.13495 16767 ft 403 kts
2026-05-04 15:51 49.26678 9.13889 16266 ft 400 kts
2026-05-04 15:51 49.29420 9.14495 15762 ft 398 kts 11°
2026-05-04 15:51 49.32109 9.15443 15207 ft 397 kts 11°
2026-05-04 15:52 49.34797 9.16400 14664 ft 395 kts 11°
2026-05-04 15:52 49.37455 9.17349 14297 ft 388 kts 11°
2026-05-04 15:52 49.40099 9.18289 13646 ft 390 kts 11°
2026-05-04 15:52 49.42709 9.19218 13305 ft 381 kts 11°
2026-05-04 15:53 49.45280 9.20135 12793 ft 377 kts 11°
2026-05-04 15:53 49.47830 9.21042 12262 ft 375 kts 12°
2026-05-04 15:53 49.50359 9.21942 11715 ft 372 kts 12°
2026-05-04 15:53 49.52873 9.22840 11173 ft 370 kts 12°
2026-05-04 15:54 49.55378 9.23736 10823 ft 369 kts 12°
2026-05-04 15:54 49.57868 9.24626 10688 ft 369 kts 12°
2026-05-04 15:54 49.60382 9.25523 10549 ft 369 kts 12°
2026-05-04 15:54 49.62880 9.26414 10398 ft 368 kts 12°
2026-05-04 15:55 49.65348 9.27297 10254 ft 357 kts 12°
2026-05-04 15:55 49.67719 9.28149 10143 ft 343 kts 12°
2026-05-04 15:55 49.69242 9.28698 10041 ft 335 kts 12°
2026-05-04 15:55 49.71485 9.29507 9853 ft 326 kts 12°
2026-05-04 15:56 49.73657 9.30290 9677 ft 316 kts 12°
2026-05-04 15:56 49.75777 9.31052 9401 ft 310 kts 12°
2026-05-04 15:56 49.77853 9.31800 9236 ft 305 kts 13°
2026-05-04 15:56 49.79926 9.32546 9147 ft 305 kts 12°
2026-05-04 15:57 49.81995 9.33245 8993 ft 304 kts
2026-05-04 15:57 49.84033 9.33060 8825 ft 299 kts 342°
2026-05-04 15:57 49.85890 9.31612 8665 ft 292 kts 317°
2026-05-04 15:57 49.87181 9.29251 8506 ft 285 kts 295°
2026-05-04 15:58 49.87862 9.26403 8352 ft 282 kts 283°
2026-05-04 15:58 49.88422 9.23490 8188 ft 282 kts 283°
2026-05-04 15:58 49.88981 9.20582 8035 ft 281 kts 283°
2026-05-04 15:58 49.89539 9.17674 7883 ft 281 kts 283°
2026-05-04 15:59 49.90092 9.14766 7749 ft 281 kts 283°
2026-05-04 15:59 49.90639 9.11867 7608 ft 280 kts 283°
2026-05-04 15:59 49.91189 9.08968 7459 ft 278 kts 283°
2026-05-04 15:59 49.91732 9.06100 7311 ft 277 kts 282°
2026-05-04 16:00 49.92275 9.03230 7147 ft 276 kts 282°
2026-05-04 16:00 49.92814 9.00371 7004 ft 276 kts 282°
2026-05-04 16:00 49.93353 8.97513 6863 ft 276 kts 282°
2026-05-04 16:00 49.93891 8.94654 6718 ft 276 kts 282°
2026-05-04 16:01 49.94489 8.91812 6569 ft 278 kts 292°
2026-05-04 16:01 49.95668 8.89421 6441 ft 284 kts 317°
2026-05-04 16:01 49.97402 8.87943 6318 ft 289 kts 342°
2026-05-04 16:01 49.99406 8.87712 6185 ft 291 kts
2026-05-04 16:02 50.01278 8.88806 6059 ft 289 kts 35°
2026-05-04 16:02 50.02674 8.90994 5932 ft 284 kts 60°
2026-05-04 16:02 50.04101 8.96633 5647 ft 280 kts 72°
2026-05-04 16:03 50.04840 8.99435 5431 ft 280 kts 59°
2026-05-04 16:03 50.06261 9.01456 5243 ft 281 kts 27°
2026-05-04 16:03 50.08099 9.02320 5041 ft 279 kts
2026-05-04 16:03 50.10024 9.02130 4904 ft 277 kts 343°
2026-05-04 16:04 50.11759 9.00919 4761 ft 270 kts 322°
2026-05-04 16:04 50.13679 8.96454 4527 ft 238 kts 279°
2026-05-04 16:04 50.13763 8.93966 4425 ft 225 kts 261°
2026-05-04 16:05 50.13340 8.91626 4327 ft 225 kts 243°
2026-05-04 16:05 50.12465 8.89609 4216 ft 226 kts 229°
2026-05-04 16:05 50.10544 8.85968 3951 ft 209 kts 242°
2026-05-04 16:06 50.09975 8.83921 3719 ft 206 kts 250°
2026-05-04 16:06 50.08669 8.78341 3001 ft 207 kts 252°
2026-05-04 16:07 50.08006 8.75529 2636 ft 207 kts 252°
2026-05-04 16:07 50.06613 8.69646 1865 ft 176 kts 251°
2026-05-04 16:08 50.06207 8.67932 1644 ft 159 kts 250°
2026-05-04 16:08 50.05167 8.63556 1009 ft 136 kts 251°
2026-05-04 16:09 50.04498 8.60780 681 ft 140 kts 252°
2026-05-04 16:09 50.03826 8.57926 370 ft 135 kts 254°
2026-05-04 16:10 50.03478 8.56432 351 ft 16 kts 250°
2026-05-04 16:11 50.03445 8.56008 347 ft 9 kts 275°
2026-05-04 16:11 50.03448 8.55959 354 ft 3 kts 278°
2026-05-04 16:12 50.03454 8.55905 345 ft 6 kts 281°
2026-05-04 16:12 50.03556 8.55973 351 ft 10 kts 359°
2026-05-04 16:13 50.03533 8.55642 353 ft 21 kts 250°
2026-05-04 16:13 50.03419 8.55165 351 ft 24 kts 251°
2026-05-04 16:14 50.03302 8.54675 335 ft 22 kts 250°
2026-05-04 16:14 50.03356 8.54456 335 ft 13 kts 342°
2026-05-04 16:15 50.03615 8.54309 343 ft 11 kts 347°
2026-05-04 16:16 50.03703 8.54504 346 ft 11 kts 69°
2026-05-04 16:16 50.03801 8.54915 353 ft 18 kts 69°
2026-05-04 16:17 50.03879 8.55237 349 ft 14 kts 70°
2026-05-04 16:18 50.03998 8.55737 358 ft 19 kts 70°
2026-05-04 16:18 50.04040 8.55915 355 ft 15 kts 69°
2026-05-04 16:19 50.04174 8.55926 356 ft 0 kts 339°
2026-05-04 16:19 50.04207 8.55917 353 ft 9 kts
2026-05-04 16:20 50.04414 8.55965 363 ft 11 kts 56°
2026-05-04 16:20 50.04434 8.56144 360 ft 6 kts 170°
2026-05-04 16:21 50.04390 8.56168 360 ft 0 kts 155°